Weather Roundup
Issued by NWS Springfield, MO

Home | Current Version | Previous Version | Text Only | Print | Product List | Glossary On
Versions: 1 2 3 4 5 6 7 8 9 10 11 12 13 14 15 16 17 18 19 20 21 22 23 24 25 26 27 28 29 30 31 32 33 34 35 36 37 38 39 40 41 42 43 44 45 46 47 48 49 50
773
NZUS99 KSGF 222007
HRRSGF

HOURLY WEATHER
NATIONAL WEATHER SERVICE SPRINGFIELD MO
300 PM CDT MON MAY 22 2017

......SGF CWA......

CITY           SKY/WX    TMP DP  RH WIND       PRES   REMARKS
SPRINGFIELD    CLOUDY    72  50  45 S12       30.03F
JOPLIN         CLOUDY    76  50  40 S12       30.00F
WEST PLAINS    SUNNY     71  47  42 SE5       30.06F
ROLLA          MOSUNNY   72  53  51 SW8       30.03F
OSAGE BEACH    PTSUNNY   74  54  49 W9        30.03F
BRANSON        PTSUNNY   73  37  27 E7        30.04F

......SURROUNDING SGF CWA......

CITY           SKY/WX    TMP DP  RH WIND       PRES   REMARKS
CHANUTE        PTSUNNY   72  53  51 S12       30.00F
PARSONS        PTSUNNY   74  51  44 S8        30.00F
COFFEYVILLE    CLOUDY    75  55  49 S7        30.00F
EMPORIA        CLOUDY    69  55  60 W5        29.99F
GROVE OK       MOSUNNY   73  50  43 S7        30.01F
ROGERS AR      MOSUNNY   74  46  36 VRB6      30.03F
SILOAM SPRINGS CLOUDY    73  46  38 S3        30.01F
HARRISON AR    SUNNY     72  48  42 VRB3      30.04F
NEAR YELLVILLE SUNNY     75  45  33 E8        30.01F

......KANSAS AND MISSOURI......

CITY           SKY/WX    TMP DP  RH WIND       PRES   REMARKS
KANSAS CTY INT CLOUDY    68  59  73 N5        29.98F
DOWNTOWN KC    CLOUDY    73  54  51 SW17G23   29.97F
COLUMBIA       PTSUNNY   72  55  55 W6        30.02F
SEDALIA        CLOUDY    73  57  57 SW14      30.03F
ST JOSEPH      CLOUDY    61  60  97 S7        30.00F
ST LOUIS       PTSUNNY   77  45  32 S8        30.03F
SPIRIT OF STL  MOSUNNY   75  48  38 S5        30.01F
KIRKSVILLE     CLOUDY    62  57  83 SW7       30.01S
WICHITA        CLOUDY    67  54  63 S10       30.00F
TOPEKA         HVY RAIN  62  57  83 NW13G23   29.98S
OLATHE         CLOUDY    71  56  58 SW10G22   29.98F

......TENNESSEE......

CITY           SKY/WX    TMP DP  RH WIND       PRES   REMARKS
MEMPHIS        CLOUDY    74  55  51 VRB5      30.02F
NASHVILLE      PTSUNNY   75  46  35 N3        30.06F

......ARKANSAS.......

CITY           SKY/WX    TMP DP  RH WIND       PRES   REMARKS
FAYETTEVILLE   MOSUNNY   73  47  39 S8        30.01F
FT SMITH       SUNNY     79  47  32 S8        29.99F
LITTLE ROCK    CLOUDY    67  51  56 SE6       30.04F

......OKLAHOMA.......

CITY           SKY/WX    TMP DP  RH WIND       PRES   REMARKS
TULSA          CLOUDY    75  54  47 SW5       29.99S
PONCA CITY     CLOUDY    66  53  63 W6        30.02F
MCALESTER      PTSUNNY   78  59  51 SW6       29.99F
OKLAHOMA CITY  LGT RAIN  66  55  67 NW8       30.04S

......IOWA............

CITY           SKY/WX    TMP DP  RH WIND       PRES   REMARKS
DES MOINES     CLOUDY    70  53  54 SW20      29.87F
QUAD CITIES    PTSUNNY   70  55  59 SW21G30   29.91F

......ILLINOIS........

CITY           SKY/WX    TMP DP  RH WIND       PRES   REMARKS
QUINCY         CLOUDY    68  53  58 S7        29.98F
CHICAGO        MOSUNNY   72  45  37 W14G24    29.93F




USA.gov is the U.S. government's official web portal to all federal, state and local government web resources and services.